Year,Month,Day,Hour,Minute,Value (Times are PST for windspeed in km/hr)
2009,07,13,00,00,13.40
2009,07,13,00,01,11.10
2009,07,13,00,02,10.60
2009,07,13,00,03,10.30
2009,07,13,00,04,15.00
2009,07,13,00,05,16.30
2009,07,13,00,06,10.50
2009,07,13,00,07,13.80
2009,07,13,00,08,12.30
2009,07,13,00,09,14.40
2009,07,13,00,10,9.60
2009,07,13,00,11,12.80
2009,07,13,00,12,11.90
2009,07,13,00,13,15.90
2009,07,13,00,14,16.10
2009,07,13,00,15,12.00
2009,07,13,00,16,11.90
2009,07,13,00,17,15.70
2009,07,13,00,18,9.30
2009,07,13,00,19,10.10
2009,07,13,00,20,9.30
2009,07,13,00,21,10.50
2009,07,13,00,22,11.60
2009,07,13,00,23,15.50
2009,07,13,00,24,13.40
2009,07,13,00,25,11.70
2009,07,13,00,26,12.00
2009,07,13,00,27,12.60
2009,07,13,00,28,12.70
2009,07,13,00,29,15.40
2009,07,13,00,30,9.90
2009,07,13,00,31,10.40
2009,07,13,00,32,14.40
2009,07,13,00,33,15.80
2009,07,13,00,34,10.00
2009,07,13,00,35,14.80
2009,07,13,00,36,10.30
2009,07,13,00,37,15.20
2009,07,13,00,38,14.60
2009,07,13,00,39,11.20
2009,07,13,00,40,16.50
2009,07,13,00,41,13.90
2009,07,13,00,42,14.90
2009,07,13,00,43,15.80
2009,07,13,00,44,17.80
2009,07,13,00,45,17.40
2009,07,13,00,46,16.10
2009,07,13,00,47,17.30
2009,07,13,00,48,15.90
2009,07,13,00,49,15.20
2009,07,13,00,50,11.80
2009,07,13,00,51,14.60
2009,07,13,00,52,13.60
2009,07,13,00,53,9.30
2009,07,13,00,54,11.30
2009,07,13,00,55,11.80
2009,07,13,00,56,6.60
2009,07,13,00,57,11.60
2009,07,13,00,58,8.60
2009,07,13,00,59,8.40
2009,07,13,01,00,4.80
2009,07,13,01,01,6.40
2009,07,13,01,02,7.40
2009,07,13,01,03,9.60
2009,07,13,01,04,9.20
2009,07,13,01,05,7.90
2009,07,13,01,06,9.80
2009,07,13,01,07,11.30
2009,07,13,01,08,14.10
2009,07,13,01,09,11.50
2009,07,13,01,10,11.10
2009,07,13,01,11,8.90
2009,07,13,01,12,5.50
2009,07,13,01,13,11.30
2009,07,13,01,14,11.60
2009,07,13,01,15,7.70
2009,07,13,01,16,9.30
2009,07,13,01,17,10.30
2009,07,13,01,18,7.50
2009,07,13,01,19,6.40
2009,07,13,01,20,11.90
2009,07,13,01,21,9.40
2009,07,13,01,22,12.20
2009,07,13,01,23,12.20
2009,07,13,01,24,7.10
2009,07,13,01,25,11.90
2009,07,13,01,26,13.70
2009,07,13,01,27,12.10
2009,07,13,01,28,12.60
2009,07,13,01,29,16.60
2009,07,13,01,30,16.10
2009,07,13,01,31,12.20
2009,07,13,01,32,10.30
2009,07,13,01,33,11.00
2009,07,13,01,34,10.10
2009,07,13,01,35,8.10
2009,07,13,01,36,10.90
2009,07,13,01,37,12.00
2009,07,13,01,38,13.10
2009,07,13,01,39,11.50
2009,07,13,01,40,14.80
2009,07,13,01,41,13.60
2009,07,13,01,42,13.40
2009,07,13,01,43,10.20
2009,07,13,01,44,10.30
2009,07,13,01,45,10.90
2009,07,13,01,46,8.80
2009,07,13,01,47,13.90
2009,07,13,01,48,12.80
2009,07,13,01,49,11.80
2009,07,13,01,50,12.50
2009,07,13,01,51,6.60
2009,07,13,01,52,15.60
2009,07,13,01,53,10.00
2009,07,13,01,54,9.60
2009,07,13,01,55,12.50
2009,07,13,01,56,12.50
2009,07,13,01,57,15.40
2009,07,13,01,58,10.60
2009,07,13,01,59,6.90
2009,07,13,02,00,9.80
2009,07,13,02,01,7.80
2009,07,13,02,02,12.80
2009,07,13,02,03,11.60
2009,07,13,02,04,9.50
2009,07,13,02,05,7.30
2009,07,13,02,06,8.90
2009,07,13,02,07,7.10
2009,07,13,02,08,7.40
2009,07,13,02,09,11.10
2009,07,13,02,10,10.00
2009,07,13,02,11,6.70
2009,07,13,02,12,5.50
2009,07,13,02,13,3.20
2009,07,13,02,14,4.60
2009,07,13,02,15,4.80
2009,07,13,02,16,6.40
2009,07,13,02,17,3.20
2009,07,13,02,18,2.80
2009,07,13,02,19,3.30
2009,07,13,02,20,2.90
2009,07,13,02,21,3.70
2009,07,13,02,22,5.20
2009,07,13,02,23,1.90
2009,07,13,02,24,1.20
2009,07,13,02,25,3.20
2009,07,13,02,26,2.50
2009,07,13,02,27,2.90
2009,07,13,02,28,1.80
2009,07,13,02,29,2.60
2009,07,13,02,30,6.70
2009,07,13,02,31,1.40
2009,07,13,02,32,1.40
2009,07,13,02,33,3.30
2009,07,13,02,34,6.30
2009,07,13,02,35,8.40
2009,07,13,02,36,5.40
2009,07,13,02,37,4.40
2009,07,13,02,38,6.10
2009,07,13,02,39,5.90
2009,07,13,02,40,5.40
2009,07,13,02,41,2.30
2009,07,13,02,42,8.80
2009,07,13,02,43,3.70
2009,07,13,02,44,4.80
2009,07,13,02,45,3.20
2009,07,13,02,46,5.70
2009,07,13,02,47,9.60
2009,07,13,02,48,3.30
2009,07,13,02,49,2.40
2009,07,13,02,50,2.20
2009,07,13,02,51,4.20
2009,07,13,02,52,3.60
2009,07,13,02,53,6.20
2009,07,13,02,54,3.90
2009,07,13,02,55,5.80
2009,07,13,02,56,7.20
2009,07,13,02,57,4.70
2009,07,13,02,58,5.20
2009,07,13,02,59,5.80
2009,07,13,03,00,6.10
2009,07,13,03,01,0.70
2009,07,13,03,02,6.40
2009,07,13,03,03,5.10
2009,07,13,03,04,4.70
2009,07,13,03,05,5.70
2009,07,13,03,06,4.70
2009,07,13,03,07,1.50
2009,07,13,03,08,2.10
2009,07,13,03,09,1.90
2009,07,13,03,10,1.90
2009,07,13,03,11,1.90
2009,07,13,03,12,2.30
2009,07,13,03,13,0.90
2009,07,13,03,14,1.70
2009,07,13,03,15,2.50
2009,07,13,03,16,2.10
2009,07,13,03,17,3.90
2009,07,13,03,18,4.00
2009,07,13,03,19,4.20
2009,07,13,03,20,1.30
2009,07,13,03,21,2.10
2009,07,13,03,22,3.20
2009,07,13,03,23,1.50
2009,07,13,03,24,4.60
2009,07,13,03,25,3.80
2009,07,13,03,26,1.40
2009,07,13,03,27,2.20
2009,07,13,03,28,2.40
2009,07,13,03,29,6.30
2009,07,13,03,30,6.20
2009,07,13,03,31,5.50
2009,07,13,03,32,4.40
2009,07,13,03,33,2.20
2009,07,13,03,34,4.20
2009,07,13,03,35,2.80
2009,07,13,03,36,1.30
2009,07,13,03,37,5.00
2009,07,13,03,38,4.10
2009,07,13,03,39,3.50
2009,07,13,03,40,4.20
2009,07,13,03,41,3.80
2009,07,13,03,42,2.80
2009,07,13,03,43,2.00
2009,07,13,03,44,4.80
2009,07,13,03,45,0.30
2009,07,13,03,46,2.50
2009,07,13,03,47,2.00
2009,07,13,03,48,2.30
2009,07,13,03,49,1.20
2009,07,13,03,50,3.00
2009,07,13,03,51,4.60
2009,07,13,03,52,1.90
2009,07,13,03,53,1.50
2009,07,13,03,54,1.40
2009,07,13,03,55,5.70
2009,07,13,03,56,3.80
2009,07,13,03,57,1.20
2009,07,13,03,58,0.90
2009,07,13,03,59,0.20
2009,07,13,04,00,3.50
2009,07,13,04,01,0.60
2009,07,13,04,02,2.90
2009,07,13,04,03,1.00
2009,07,13,04,04,0.00
2009,07,13,04,08,0.40
2009,07,13,04,09,1.90
2009,07,13,04,10,0.30
2009,07,13,04,11,0.20
2009,07,13,04,12,0.40
2009,07,13,04,13,4.20
2009,07,13,04,14,3.60
2009,07,13,04,15,0.20
2009,07,13,04,16,1.40
2009,07,13,04,17,2.10
2009,07,13,04,18,0.50
2009,07,13,04,19,0.60
2009,07,13,04,20,0.40
2009,07,13,04,21,0.30
2009,07,13,04,22,2.30
2009,07,13,04,23,0.50
2009,07,13,04,24,2.10
2009,07,13,04,25,2.30
2009,07,13,04,26,0.60
2009,07,13,04,27,0.60
2009,07,13,04,28,2.30
2009,07,13,04,29,0.10
2009,07,13,04,30,1.70
2009,07,13,04,31,2.80
2009,07,13,04,32,1.50
2009,07,13,04,33,3.30
2009,07,13,04,34,3.10
2009,07,13,04,35,4.20
2009,07,13,04,36,2.50
2009,07,13,04,37,4.20
2009,07,13,04,38,4.70
2009,07,13,04,39,4.60
2009,07,13,04,40,5.90
2009,07,13,04,41,4.00
2009,07,13,04,42,5.30
2009,07,13,04,43,4.40
2009,07,13,04,44,5.30
2009,07,13,04,45,4.70
2009,07,13,04,46,4.90
2009,07,13,04,47,4.90
2009,07,13,04,48,4.10
2009,07,13,04,49,3.70
2009,07,13,04,50,6.40
2009,07,13,04,51,7.80
2009,07,13,04,52,8.10
2009,07,13,04,53,6.50
2009,07,13,04,54,4.90
2009,07,13,04,55,5.50
2009,07,13,04,56,4.40
2009,07,13,04,57,5.30
2009,07,13,04,58,6.90
2009,07,13,04,59,6.30
2009,07,13,05,00,5.00
2009,07,13,05,01,5.30
2009,07,13,05,02,5.00
2009,07,13,05,03,5.30
2009,07,13,05,04,6.20
2009,07,13,05,05,7.00
2009,07,13,05,06,5.40
2009,07,13,05,07,6.30
2009,07,13,05,08,4.40
2009,07,13,05,09,2.10
2009,07,13,05,10,6.60
2009,07,13,05,11,5.10
2009,07,13,05,12,5.90
2009,07,13,05,13,5.40
2009,07,13,05,14,2.20
2009,07,13,05,15,2.70
2009,07,13,05,16,3.20
2009,07,13,05,17,6.60
2009,07,13,05,18,5.40
2009,07,13,05,19,2.10
2009,07,13,05,20,3.20
2009,07,13,05,21,4.70
2009,07,13,05,22,6.20
2009,07,13,05,23,5.60
2009,07,13,05,24,3.80
2009,07,13,05,25,4.90
2009,07,13,05,26,7.60
2009,07,13,05,27,5.10
2009,07,13,05,28,2.40
2009,07,13,05,29,5.80
2009,07,13,05,30,1.90
2009,07,13,05,31,0.90
2009,07,13,05,32,4.50
2009,07,13,05,33,3.20
2009,07,13,05,34,3.00
2009,07,13,05,35,2.90
2009,07,13,05,36,3.20
2009,07,13,05,37,5.10
2009,07,13,05,38,3.90
2009,07,13,05,39,3.90
2009,07,13,05,40,3.60
2009,07,13,05,41,3.60
2009,07,13,05,42,2.50
2009,07,13,05,43,2.40
2009,07,13,05,44,2.30
2009,07,13,05,45,6.30
2009,07,13,05,46,7.30
2009,07,13,05,47,4.10
2009,07,13,05,48,4.00
2009,07,13,05,49,7.70
2009,07,13,05,50,5.10
2009,07,13,05,51,7.30
2009,07,13,05,52,6.30
2009,07,13,05,53,6.20
2009,07,13,05,54,7.00
2009,07,13,05,55,4.70
2009,07,13,05,56,8.20
2009,07,13,05,57,7.40
2009,07,13,05,58,8.40
2009,07,13,05,59,8.60
2009,07,13,06,00,7.90
2009,07,13,06,01,5.10
2009,07,13,06,02,6.80
2009,07,13,06,03,4.10
2009,07,13,06,04,6.60
2009,07,13,06,05,6.20
2009,07,13,06,06,7.30
2009,07,13,06,07,6.30
2009,07,13,06,08,2.20
2009,07,13,06,09,9.50
2009,07,13,06,10,3.80
2009,07,13,06,11,4.70
2009,07,13,06,12,3.90
2009,07,13,06,13,4.40
2009,07,13,06,14,7.10
2009,07,13,06,15,6.90
2009,07,13,06,16,2.30
2009,07,13,06,17,2.90
2009,07,13,06,18,4.70
2009,07,13,06,19,2.00
2009,07,13,06,20,6.10
2009,07,13,06,21,6.50
2009,07,13,06,22,4.30
2009,07,13,06,23,5.50
2009,07,13,06,24,5.30
2009,07,13,06,25,4.60
2009,07,13,06,26,2.10
2009,07,13,06,27,6.70
2009,07,13,06,28,6.00
2009,07,13,06,29,3.10
2009,07,13,06,30,9.30
2009,07,13,06,31,7.60
2009,07,13,06,32,11.50
2009,07,13,06,33,6.30
2009,07,13,06,34,5.60
2009,07,13,06,35,10.60
2009,07,13,06,36,7.00
2009,07,13,06,37,4.80
2009,07,13,06,38,5.10
2009,07,13,06,39,3.60
2009,07,13,06,40,10.30
2009,07,13,06,41,8.90
2009,07,13,06,42,5.10
2009,07,13,06,43,7.10
2009,07,13,06,44,3.90
2009,07,13,06,45,3.00
2009,07,13,06,46,8.40
2009,07,13,06,47,6.90
2009,07,13,06,48,6.10
2009,07,13,06,49,7.90
2009,07,13,06,50,6.10
2009,07,13,06,51,7.10
2009,07,13,06,52,9.60
2009,07,13,06,53,7.30
2009,07,13,06,54,8.60
2009,07,13,06,55,6.70
2009,07,13,06,56,2.60
2009,07,13,06,57,1.50
2009,07,13,06,58,7.20
2009,07,13,06,59,4.70
2009,07,13,07,00,6.80
2009,07,13,07,01,2.70
2009,07,13,07,02,5.30
2009,07,13,07,03,2.80
2009,07,13,07,04,7.40
2009,07,13,07,05,5.20
2009,07,13,07,06,9.00
2009,07,13,07,07,5.90
2009,07,13,07,08,5.20
2009,07,13,07,09,8.70
2009,07,13,07,10,4.60
2009,07,13,07,11,8.40
2009,07,13,07,12,7.20
2009,07,13,07,13,7.20
2009,07,13,07,14,5.40
2009,07,13,07,15,5.80
2009,07,13,07,16,5.70
2009,07,13,07,17,11.20
2009,07,13,07,18,5.10
2009,07,13,07,19,10.10
2009,07,13,07,20,9.00
2009,07,13,07,21,7.80
2009,07,13,07,22,9.70
2009,07,13,07,23,12.40
2009,07,13,07,24,10.20
2009,07,13,07,25,10.50
2009,07,13,07,26,9.70
2009,07,13,07,27,9.00
2009,07,13,07,28,14.30
2009,07,13,07,29,8.70
2009,07,13,07,30,10.30
2009,07,13,07,31,8.00
2009,07,13,07,32,10.80
2009,07,13,07,33,13.10
2009,07,13,07,34,10.20
2009,07,13,07,35,9.60
2009,07,13,07,36,3.50
2009,07,13,07,37,12.40
2009,07,13,07,38,8.50
2009,07,13,07,39,8.60
2009,07,13,07,40,11.00
2009,07,13,07,41,7.00
2009,07,13,07,42,10.50
2009,07,13,07,43,9.80
2009,07,13,07,44,8.30
2009,07,13,07,45,5.50
2009,07,13,07,46,6.90
2009,07,13,07,47,5.40
2009,07,13,07,48,6.10
2009,07,13,07,49,6.90
2009,07,13,07,50,7.80
2009,07,13,07,51,10.70
2009,07,13,07,52,10.20
2009,07,13,07,53,11.30
2009,07,13,07,54,12.40
2009,07,13,07,55,10.80
2009,07,13,07,56,6.80
2009,07,13,07,57,2.60
2009,07,13,07,58,2.00
2009,07,13,07,59,6.20
2009,07,13,08,00,7.90
2009,07,13,08,01,5.30
2009,07,13,08,02,1.30
2009,07,13,08,03,9.20
2009,07,13,08,04,8.60
2009,07,13,08,05,6.90
2009,07,13,08,06,9.60
2009,07,13,08,07,8.60
2009,07,13,08,08,5.40
2009,07,13,08,09,3.10
2009,07,13,08,10,7.00
2009,07,13,08,11,6.20
2009,07,13,08,12,10.80
2009,07,13,08,13,9.40
2009,07,13,08,14,8.50
2009,07,13,08,15,8.10
2009,07,13,08,16,7.00
2009,07,13,08,17,4.30
2009,07,13,08,18,6.30
2009,07,13,08,19,5.60
2009,07,13,08,20,6.80
2009,07,13,08,21,4.10
2009,07,13,08,22,9.30
2009,07,13,08,23,10.60
2009,07,13,08,24,11.00
2009,07,13,08,25,9.20
2009,07,13,08,26,8.00
2009,07,13,08,27,4.90
2009,07,13,08,28,10.30
2009,07,13,08,29,14.50
2009,07,13,08,30,9.90
2009,07,13,08,31,8.50
2009,07,13,08,32,8.10
2009,07,13,08,33,9.50
2009,07,13,08,34,11.40
2009,07,13,08,35,7.90
2009,07,13,08,36,7.20
2009,07,13,08,37,5.50
2009,07,13,08,38,6.50
2009,07,13,08,39,7.90
2009,07,13,08,40,9.40
2009,07,13,08,41,7.60
2009,07,13,08,42,11.20
2009,07,13,08,43,8.10
2009,07,13,08,44,8.60
2009,07,13,08,45,8.00
2009,07,13,08,46,6.60
2009,07,13,08,47,8.40
2009,07,13,08,48,2.70
2009,07,13,08,49,4.20
2009,07,13,08,50,6.00
2009,07,13,08,51,9.70
2009,07,13,08,52,4.20
2009,07,13,08,53,0.90
2009,07,13,08,54,3.10
2009,07,13,08,55,6.00
2009,07,13,08,56,10.30
2009,07,13,08,57,6.00
2009,07,13,08,58,8.40
2009,07,13,08,59,8.80
2009,07,13,09,00,7.40
2009,07,13,09,01,8.20
2009,07,13,09,02,12.10
2009,07,13,09,03,5.20
2009,07,13,09,04,11.50
2009,07,13,09,05,11.70
2009,07,13,09,06,9.10
2009,07,13,09,07,3.90
2009,07,13,09,08,5.80
2009,07,13,09,09,8.60
2009,07,13,09,10,7.50
2009,07,13,09,11,4.30
2009,07,13,09,12,8.80
2009,07,13,09,13,6.00
2009,07,13,09,14,8.50
2009,07,13,09,15,4.70
2009,07,13,09,16,11.10
2009,07,13,09,17,6.20
2009,07,13,09,18,10.70
2009,07,13,09,19,10.10
2009,07,13,09,20,7.70
2009,07,13,09,21,7.00
2009,07,13,09,22,3.50
2009,07,13,09,23,13.20
2009,07,13,09,24,10.50
2009,07,13,09,25,11.60
2009,07,13,09,26,6.70
2009,07,13,09,27,8.00
2009,07,13,09,28,8.20
2009,07,13,09,29,9.10
2009,07,13,09,30,9.80
2009,07,13,09,31,13.00
2009,07,13,09,32,8.90
2009,07,13,09,33,7.80
2009,07,13,09,34,6.40
2009,07,13,09,35,8.00
2009,07,13,09,36,3.80
2009,07,13,09,37,6.00
2009,07,13,09,38,8.10
2009,07,13,09,39,10.60
2009,07,13,09,40,7.20
2009,07,13,09,41,9.90
2009,07,13,09,42,9.80
2009,07,13,09,43,11.60
2009,07,13,09,44,14.10
2009,07,13,09,45,9.20
2009,07,13,09,46,7.30
2009,07,13,09,47,8.00
2009,07,13,09,48,11.30
2009,07,13,09,49,4.70
2009,07,13,09,50,8.90
2009,07,13,09,51,8.00
2009,07,13,09,52,10.10
2009,07,13,09,53,8.80
2009,07,13,09,54,4.40
2009,07,13,09,55,7.50
2009,07,13,09,56,2.50
2009,07,13,09,57,5.60
2009,07,13,09,58,7.80
2009,07,13,09,59,8.90
2009,07,13,10,00,6.50
2009,07,13,10,01,7.00
2009,07,13,10,02,5.80
2009,07,13,10,03,7.30
2009,07,13,10,04,10.10
2009,07,13,10,05,6.50
2009,07,13,10,06,7.20
2009,07,13,10,07,6.50
2009,07,13,10,08,6.20
2009,07,13,10,09,9.70
2009,07,13,10,10,8.00
2009,07,13,10,11,11.00
2009,07,13,10,12,8.30
2009,07,13,10,13,5.50
2009,07,13,10,14,9.50
2009,07,13,10,15,8.00
2009,07,13,10,16,3.30
2009,07,13,10,17,5.10
2009,07,13,10,18,5.50
2009,07,13,10,19,5.60
2009,07,13,10,20,5.50
2009,07,13,10,21,1.60
2009,07,13,10,22,5.70
2009,07,13,10,23,8.20
2009,07,13,10,24,7.10
2009,07,13,10,25,5.30
2009,07,13,10,26,3.50
2009,07,13,10,27,10.20
2009,07,13,10,28,3.80
2009,07,13,10,29,8.70
2009,07,13,10,30,9.90
2009,07,13,10,31,6.60
2009,07,13,10,32,9.70
2009,07,13,10,33,5.90
2009,07,13,10,34,3.60
2009,07,13,10,35,6.40
2009,07,13,10,36,10.00
2009,07,13,10,37,7.50
2009,07,13,10,38,17.30
2009,07,13,10,39,7.80
2009,07,13,10,40,10.20
2009,07,13,10,41,11.30
2009,07,13,10,42,10.70
2009,07,13,10,43,14.90
2009,07,13,10,44,11.40
2009,07,13,10,45,10.60
2009,07,13,10,46,13.20
2009,07,13,10,47,9.60
2009,07,13,10,48,14.20
2009,07,13,10,49,10.00
2009,07,13,10,50,8.60
2009,07,13,10,51,11.70
2009,07,13,10,52,13.40
2009,07,13,10,53,8.80
2009,07,13,10,54,12.40
2009,07,13,10,55,17.90
2009,07,13,10,56,12.90
2009,07,13,10,57,10.60
2009,07,13,10,58,15.10
2009,07,13,10,59,11.40
2009,07,13,11,00,10.60
2009,07,13,11,01,15.90
2009,07,13,11,02,19.10
2009,07,13,11,03,16.20
2009,07,13,11,04,12.60
2009,07,13,11,05,13.50
2009,07,13,11,06,7.90
2009,07,13,11,07,9.10
2009,07,13,11,08,9.90
2009,07,13,11,09,12.70
2009,07,13,11,10,13.60
2009,07,13,11,11,10.80
2009,07,13,11,12,12.10
2009,07,13,11,13,9.70
2009,07,13,11,14,7.80
2009,07,13,11,15,7.70
2009,07,13,11,16,7.00
2009,07,13,11,17,9.70
2009,07,13,11,18,11.90
2009,07,13,11,19,10.20
2009,07,13,11,20,9.90
2009,07,13,11,21,8.80
2009,07,13,11,22,9.30
2009,07,13,11,23,6.90
2009,07,13,11,24,15.10
2009,07,13,11,25,9.60
2009,07,13,11,26,12.70
2009,07,13,11,27,11.80
2009,07,13,11,28,9.70
2009,07,13,11,29,8.60
2009,07,13,11,30,13.20
2009,07,13,11,31,16.40
2009,07,13,11,32,12.20
2009,07,13,11,33,12.30
2009,07,13,11,34,13.20
2009,07,13,11,35,14.90
2009,07,13,11,36,9.40
2009,07,13,11,37,2.90
2009,07,13,11,38,7.80
2009,07,13,11,39,11.40
2009,07,13,11,40,9.20
2009,07,13,11,41,7.30
2009,07,13,11,42,7.10
2009,07,13,11,43,8.20
2009,07,13,11,44,12.30
2009,07,13,11,45,12.00
2009,07,13,11,46,12.60
2009,07,13,11,47,4.10
2009,07,13,11,48,6.30
2009,07,13,11,49,8.30
2009,07,13,11,50,8.60
2009,07,13,11,51,9.50
2009,07,13,11,52,14.30
2009,07,13,11,53,13.80
2009,07,13,11,54,12.10
2009,07,13,11,55,7.50
2009,07,13,11,56,4.60
2009,07,13,11,57,10.10
2009,07,13,11,58,8.80
2009,07,13,11,59,8.80
2009,07,13,12,00,9.90
2009,07,13,12,01,11.10
2009,07,13,12,02,14.00
2009,07,13,12,03,16.30
2009,07,13,12,04,11.10
2009,07,13,12,05,11.90
2009,07,13,12,06,8.20
2009,07,13,12,07,11.40
2009,07,13,12,08,10.80
2009,07,13,12,09,6.00
2009,07,13,12,10,13.40
2009,07,13,12,11,6.70
2009,07,13,12,12,8.70
2009,07,13,12,13,9.70
2009,07,13,12,14,7.90
2009,07,13,12,15,8.10
2009,07,13,12,16,7.80
2009,07,13,12,17,15.00
2009,07,13,12,18,16.20
2009,07,13,12,19,11.40
2009,07,13,12,20,12.60
2009,07,13,12,21,11.60
2009,07,13,12,22,15.20
2009,07,13,12,23,15.50
2009,07,13,12,24,16.30
2009,07,13,12,25,13.90
2009,07,13,12,26,12.20
2009,07,13,12,27,16.20
2009,07,13,12,28,13.40
2009,07,13,12,29,19.00
2009,07,13,12,30,13.00
2009,07,13,12,31,14.00
2009,07,13,12,32,12.00
2009,07,13,12,33,7.60
2009,07,13,12,34,7.30
2009,07,13,12,35,14.40
2009,07,13,12,36,12.10
2009,07,13,12,37,13.30
2009,07,13,12,38,13.80
2009,07,13,12,39,11.70
2009,07,13,12,40,13.40
2009,07,13,12,41,15.60
2009,07,13,12,42,11.90
2009,07,13,12,43,12.80
2009,07,13,12,44,13.70
2009,07,13,12,45,15.30
2009,07,13,12,46,14.10
2009,07,13,12,47,15.00
2009,07,13,12,48,13.40
2009,07,13,12,49,11.40
2009,07,13,12,50,14.90
2009,07,13,12,51,12.00
2009,07,13,12,52,13.30
2009,07,13,12,53,19.80
2009,07,13,12,54,9.20
2009,07,13,12,55,18.80
2009,07,13,12,56,19.20
2009,07,13,12,57,16.90
2009,07,13,12,58,18.70
2009,07,13,12,59,17.90
2009,07,13,13,00,19.20
2009,07,13,13,01,11.90
2009,07,13,13,02,20.30
2009,07,13,13,03,14.70
2009,07,13,13,04,10.80
2009,07,13,13,05,15.10
2009,07,13,13,06,17.80
2009,07,13,13,07,17.90
2009,07,13,13,08,14.20
2009,07,13,13,09,12.50
2009,07,13,13,10,14.60
2009,07,13,13,11,14.70
2009,07,13,13,12,22.40
2009,07,13,13,13,17.40
2009,07,13,13,14,19.40
2009,07,13,13,15,17.60
2009,07,13,13,16,14.70
2009,07,13,13,17,10.80
2009,07,13,13,18,8.60
2009,07,13,13,19,14.10
2009,07,13,13,20,18.70
2009,07,13,13,21,13.50
2009,07,13,13,22,13.00
2009,07,13,13,23,17.50
2009,07,13,13,24,10.80
2009,07,13,13,25,15.70
2009,07,13,13,26,16.00
2009,07,13,13,27,18.10
2009,07,13,13,28,10.60
2009,07,13,13,29,14.60
2009,07,13,13,30,11.40
2009,07,13,13,31,11.70
2009,07,13,13,32,14.00
2009,07,13,13,33,22.80
2009,07,13,13,34,19.70
2009,07,13,13,35,13.50
2009,07,13,13,36,17.60
2009,07,13,13,37,24.90
2009,07,13,13,38,18.10
2009,07,13,13,39,19.40
2009,07,13,13,40,19.70
2009,07,13,13,41,21.00
2009,07,13,13,42,23.20
2009,07,13,13,43,11.30
2009,07,13,13,44,16.90
2009,07,13,13,45,13.60
2009,07,13,13,46,17.80
2009,07,13,13,47,15.00
2009,07,13,13,48,12.20
2009,07,13,13,49,13.00
2009,07,13,13,50,10.30
2009,07,13,13,51,13.00
2009,07,13,13,52,19.60
2009,07,13,13,53,14.80
2009,07,13,13,54,16.50
2009,07,13,13,55,18.30
2009,07,13,13,56,17.80
2009,07,13,13,57,19.90
2009,07,13,13,58,10.60
2009,07,13,13,59,19.60
2009,07,13,14,00,17.80
2009,07,13,14,01,18.90
2009,07,13,14,02,11.30
2009,07,13,14,03,16.20
2009,07,13,14,04,19.60
2009,07,13,14,05,20.60
2009,07,13,14,06,15.50
2009,07,13,14,07,15.30
2009,07,13,14,08,17.80
2009,07,13,14,09,13.30
2009,07,13,14,10,16.00
2009,07,13,14,11,14.70
2009,07,13,14,12,17.00
2009,07,13,14,13,22.20
2009,07,13,14,14,18.30
2009,07,13,14,15,19.60
2009,07,13,14,16,13.40
2009,07,13,14,17,14.00
2009,07,13,14,18,11.30
2009,07,13,14,19,14.80
2009,07,13,14,20,17.20
2009,07,13,14,21,22.40
2009,07,13,14,22,20.90
2009,07,13,14,23,20.70
2009,07,13,14,24,15.90
2009,07,13,14,25,22.20
2009,07,13,14,26,24.50
2009,07,13,14,27,25.20
2009,07,13,14,28,20.80
2009,07,13,14,29,20.20
2009,07,13,14,30,22.00
2009,07,13,14,31,19.30
2009,07,13,14,32,20.50
2009,07,13,14,33,17.20
2009,07,13,14,34,15.80
2009,07,13,14,35,12.80
2009,07,13,14,36,18.10
2009,07,13,14,37,17.60
2009,07,13,14,38,17.40
2009,07,13,14,39,14.60
2009,07,13,14,40,16.70
2009,07,13,14,41,12.30
2009,07,13,14,42,17.40
2009,07,13,14,43,15.40
2009,07,13,14,44,14.90
2009,07,13,14,45,21.20
2009,07,13,14,46,22.50
2009,07,13,14,47,16.70
2009,07,13,14,48,20.50
2009,07,13,14,49,18.50
2009,07,13,14,50,15.00
2009,07,13,14,51,12.60
2009,07,13,14,52,11.30
2009,07,13,14,53,15.10
2009,07,13,14,54,19.10
2009,07,13,14,55,15.20
2009,07,13,14,56,9.30
2009,07,13,14,57,11.10
2009,07,13,14,58,10.60
2009,07,13,14,59,15.70
2009,07,13,15,00,17.60
2009,07,13,15,01,14.70
2009,07,13,15,02,13.40
2009,07,13,15,03,20.60
2009,07,13,15,04,18.20
2009,07,13,15,05,14.10
2009,07,13,15,06,16.60
2009,07,13,15,07,16.60
2009,07,13,15,08,18.30
2009,07,13,15,09,20.90
2009,07,13,15,10,18.70
2009,07,13,15,11,12.00
2009,07,13,15,12,17.90
2009,07,13,15,13,16.90
2009,07,13,15,14,16.80
2009,07,13,15,15,19.90
2009,07,13,15,16,15.00
2009,07,13,15,17,21.40
2009,07,13,15,18,12.90
2009,07,13,15,19,19.70
2009,07,13,15,20,19.10
2009,07,13,15,21,13.40
2009,07,13,15,22,19.50
2009,07,13,15,23,10.70
2009,07,13,15,24,12.60
2009,07,13,15,25,13.30
2009,07,13,15,26,13.70
2009,07,13,15,27,11.40
2009,07,13,15,28,17.40
2009,07,13,15,29,20.20
2009,07,13,15,30,20.60
2009,07,13,15,31,18.60
2009,07,13,15,32,16.00
2009,07,13,15,33,10.80
2009,07,13,15,34,19.10
2009,07,13,15,35,19.90
2009,07,13,15,36,14.90
2009,07,13,15,37,15.20
2009,07,13,15,38,15.30
2009,07,13,15,39,15.80
2009,07,13,15,40,16.20
2009,07,13,15,41,19.20
2009,07,13,15,42,19.70
2009,07,13,15,43,17.80
2009,07,13,15,44,18.00
2009,07,13,15,45,23.00
2009,07,13,15,46,18.50
2009,07,13,15,47,13.60
2009,07,13,15,48,14.20
2009,07,13,15,49,10.70
2009,07,13,15,50,15.40
2009,07,13,15,51,16.60
2009,07,13,15,52,17.40
2009,07,13,15,53,17.10
2009,07,13,15,54,16.90
2009,07,13,15,55,18.40
2009,07,13,15,56,22.50
2009,07,13,15,57,23.00
2009,07,13,15,58,13.90
2009,07,13,15,59,17.90
2009,07,13,16,00,19.50
2009,07,13,16,01,20.70
2009,07,13,16,02,16.50
2009,07,13,16,03,19.10
2009,07,13,16,04,18.20
2009,07,13,16,05,16.40
2009,07,13,16,06,21.40
2009,07,13,16,07,10.40
2009,07,13,16,08,20.10
2009,07,13,16,09,7.60
2009,07,13,16,10,20.80
2009,07,13,16,11,21.40
2009,07,13,16,12,18.00
2009,07,13,16,13,20.00
2009,07,13,16,14,21.20
2009,07,13,16,15,12.20
2009,07,13,16,16,15.60
2009,07,13,16,17,19.50
2009,07,13,16,18,18.90
2009,07,13,16,19,20.80
2009,07,13,16,20,16.50
2009,07,13,16,21,13.70
2009,07,13,16,22,17.00
2009,07,13,16,23,13.10
2009,07,13,16,24,10.70
2009,07,13,16,25,19.00
2009,07,13,16,26,20.80
2009,07,13,16,27,19.40
2009,07,13,16,28,18.70
2009,07,13,16,29,20.20
2009,07,13,16,30,19.10
2009,07,13,16,31,17.60
2009,07,13,16,32,18.20
2009,07,13,16,33,15.00
2009,07,13,16,34,14.30
2009,07,13,16,35,15.30
2009,07,13,16,36,19.40
2009,07,13,16,37,15.90
2009,07,13,16,38,15.10
2009,07,13,16,39,14.00
2009,07,13,16,40,19.80
2009,07,13,16,41,15.40
2009,07,13,16,42,14.90
2009,07,13,16,43,22.90
2009,07,13,16,44,17.40
2009,07,13,16,45,15.40
2009,07,13,16,46,12.80
2009,07,13,16,47,11.00
2009,07,13,16,48,16.70
2009,07,13,16,49,12.70
2009,07,13,16,50,12.80
2009,07,13,16,51,10.60
2009,07,13,16,52,11.70
2009,07,13,16,53,17.70
2009,07,13,16,54,19.00
2009,07,13,16,55,11.80
2009,07,13,16,56,15.80
2009,07,13,16,57,17.50
2009,07,13,16,58,19.60
2009,07,13,16,59,17.20
2009,07,13,17,00,13.90
2009,07,13,17,01,16.40
2009,07,13,17,02,21.20
2009,07,13,17,03,20.20
2009,07,13,17,04,18.80
2009,07,13,17,05,16.70
2009,07,13,17,06,10.70
2009,07,13,17,07,19.10
2009,07,13,17,08,14.70
2009,07,13,17,09,13.90
2009,07,13,17,10,15.40
2009,07,13,17,11,10.40
2009,07,13,17,12,16.40
2009,07,13,17,13,15.40
2009,07,13,17,14,15.10
2009,07,13,17,15,17.30
2009,07,13,17,16,21.00
2009,07,13,17,17,18.50
2009,07,13,17,18,17.00
2009,07,13,17,19,19.90
2009,07,13,17,20,19.60
2009,07,13,17,21,18.50
2009,07,13,17,22,12.60
2009,07,13,17,23,13.40
2009,07,13,17,24,15.90
2009,07,13,17,25,13.50
2009,07,13,17,26,17.40
2009,07,13,17,27,12.90
2009,07,13,17,28,15.80
2009,07,13,17,29,17.90
2009,07,13,17,30,19.60
2009,07,13,17,31,12.40
2009,07,13,17,32,14.50
2009,07,13,17,33,12.30
2009,07,13,17,34,13.50
2009,07,13,17,35,15.80
2009,07,13,17,36,12.50
2009,07,13,17,37,11.10
2009,07,13,17,38,18.50
2009,07,13,17,39,12.60
2009,07,13,17,40,13.60
2009,07,13,17,41,13.00
2009,07,13,17,42,13.30
2009,07,13,17,43,9.20
2009,07,13,17,44,19.50
2009,07,13,17,45,13.40